"2009-10-31 00:00:00",1374046,12.41,320.8,3.885,0.839,12.93,103.3843,7.94,9.25,33.6,0,110.1,13.37,8.72,282.8
"2009-10-31 00:00:30",1374047,12.16,319.8,4.64,1.057,12.12,103.3829,7.936,9.24,33.58,0,110.1,13.37,8.72,281.8
"2009-10-31 00:01:00",1374048,10.45,311.4,4.741,0.918,9.51,103.3822,7.934,9.11,33.48,0,110.1,13.37,8.71,273.4
"2009-10-31 00:01:30",1374049,12.22,317.3,5.978,1.245,11.51,103.3837,7.938,9.14,33.5,0,110,13.37,8.72,279.3
"2009-10-31 00:02:00",1374050,12.24,315.8,6.54,1.136,11.33,103.3764,7.92,9.15,33.55,0,110.1,13.37,8.70,277.8
"2009-10-31 00:02:30",1374051,12.61,319.4,4.755,0.817,12.76,103.3732,7.911,9.23,33.61,0,110,13.37,8.69,281.4
"2009-10-31 00:03:00",1374052,12.61,318.9,4.376,0.925,12.67,103.3735,7.912,9.24,33.61,0,110.1,13.38,8.69,280.9
"2009-10-31 00:03:30",1374053,12.69,318,3.77,0.586,13.1,103.3747,7.915,9.26,33.62,0,110.1,13.38,8.69,280.0
"2009-10-31 00:04:00",1374054,12.9,318.3,4.634,0.933,12.72,103.3796,7.928,9.23,33.58,0,110,13.38,8.71,280.3
"2009-10-31 00:04:30",1374055,13.18,318.7,4.408,0.92,12.34,103.3793,7.927,9.24,33.59,0,110,13.38,8.71,280.7
"2009-10-31 00:05:00",1374056,13.42,316.6,3.615,0.765,12,103.382,7.934,9.23,33.6,0,110.1,13.38,8.71,278.6
"2009-10-31 00:05:30",1374057,13.46,319.7,2.563,0.867,11.93,103.3837,7.938,9.25,33.57,0,110.1,13.38,8.72,281.7
"2009-10-31 00:06:00",1374058,13.43,316.9,4.256,1.206,11.23,103.3844,7.94,9.11,33.46,0,110,13.38,8.72,278.9
"2009-10-31 00:06:30",1374059,12.32,309.3,4.573,1.135,8.34,103.3799,7.929,8.91,33.24,0,110,13.38,8.71,271.3
"2009-10-31 00:07:00",1374060,13.36,310.3,6.508,1.475,9.81,103.3697,7.903,9.04,33.39,0,110,13.38,8.68,272.3
"2009-10-31 00:07:30",1374061,14.47,314.9,6.1,0.97,12.41,103.3573,7.871,9.2,33.52,0,110,13.38,8.65,276.9
"2009-10-31 00:08:00",1374062,15.34,318.1,4.517,0.627,13.24,103.3548,7.864,9.2,33.52,0,110,13.39,8.64,280.1
"2009-10-31 00:08:30",1374063,14.53,317.8,3.118,0.943,13.11,103.3548,7.864,9.19,33.53,0,110,13.39,8.64,279.8
"2009-10-31 00:09:00",1374064,14.73,319.3,3.321,0.847,12.71,103.3548,7.864,9.2,33.57,0,110,13.39,8.64,281.3
"2009-10-31 00:09:30",1374065,14.51,317.9,3.893,0.626,12.57,103.3548,7.864,9.17,33.56,0,110.1,13.38,8.64,279.9
"2009-10-31 00:10:00",1374066,14.01,315,6.501,1.234,11.65,103.3548,7.864,9.11,33.53,0,110,13.38,8.64,277.0
"2009-10-31 00:10:30",1374067,13.46,314.7,6.072,1.146,11.42,103.3548,7.864,9.1,33.55,0,110,13.38,8.64,276.7
"2009-10-31 00:11:00",1374068,11.38,306.3,2.943,0.816,8.5,103.3545,7.864,8.95,33.45,0,110,13.38,8.64,268.3
"2009-10-31 00:11:30",1374069,12.59,315.4,6.485,1.209,11.94,103.3486,7.848,9.05,33.53,0,110,13.39,8.63,277.4
"2009-10-31 00:12:00",1374070,12.82,315.8,6.667,1.314,12.2,103.3311,7.804,9.07,33.59,0,110,13.39,8.58,277.8
"2009-10-31 00:12:30",1374071,13.83,318.9,3.708,0.806,12.91,103.3226,7.782,9.13,33.75,0,110,13.39,8.56,280.9
"2009-10-31 00:13:00",1374072,13.93,318.4,3.777,0.771,12.88,103.3209,7.778,9.12,33.75,0,110,13.39,8.56,280.4
"2009-10-31 00:13:30",1374073,13.79,314.2,5.513,1.005,12.05,103.3209,7.778,9,33.66,0,110,13.39,8.56,276.2
"2009-10-31 00:14:00",1374074,14.04,314.3,6.53,1.193,10.96,103.3209,7.778,9.03,33.73,0,110,13.38,8.56,276.3
"2009-10-31 00:14:30",1374075,14.52,315.7,5.65,1.142,11.51,103.3209,7.778,9.06,33.76,0,110,13.38,8.56,277.7
"2009-10-31 00:15:00",1374076,15.15,319.7,3.529,0.83,12.61,103.3209,7.778,9.08,33.82,0,110,13.38,8.56,281.7
"2009-10-31 00:15:30",1374077,14.58,315.7,7.145,1.405,12.25,103.3209,7.778,9.06,33.85,0,110,13.38,8.56,277.7
"2009-10-31 00:16:00",1374078,15.34,316.5,6.74,0.863,11.92,103.3206,7.777,9.06,33.88,0,110,13.38,8.56,278.5
"2009-10-31 00:16:30",1374079,14.64,316.3,5.466,1.08,11.99,103.3164,7.766,9.05,33.94,0,110.1,13.38,8.55,278.3
"2009-10-31 00:17:00",1374080,14.17,314.1,6.18,1.256,11.65,103.302,7.729,8.99,33.86,0,110,13.38,8.51,276.1
"2009-10-31 00:17:30",1374081,15.03,315.7,6.318,1.034,11.41,103.2896,7.698,8.94,33.79,0,110,13.38,8.48,277.7
"2009-10-31 00:18:00",1374082,14.47,317.5,5.066,1.035,12.49,103.287,7.691,9.03,33.87,0,110,13.38,8.47,279.5
"2009-10-31 00:18:30",1374083,15.36,320,5.603,0.752,12.7,103.287,7.691,9.03,33.93,0,110,13.38,8.47,282.0
"2009-10-31 00:19:00",1374084,15.17,317.4,4.958,0.759,12.72,103.287,7.691,9.04,33.93,0,110,13.39,8.47,279.4
"2009-10-31 00:19:30",1374085,14.79,319.4,5.728,0.949,12.71,103.287,7.691,9.02,33.95,0,110,13.39,8.47,281.4
"2009-10-31 00:20:00",1374086,15.68,321.3,4.591,1.251,12.52,103.287,7.691,9.01,34.03,0,110,13.39,8.47,283.3
"2009-10-31 00:20:30",1374087,15.68,317.8,5.336,0.699,12.47,103.2865,7.69,8.99,34.11,0,110,13.39,8.47,279.8
"2009-10-31 00:21:00",1374088,16,317.8,5.25,0.907,12.49,103.2777,7.667,9.01,34.24,0,110,13.39,8.45,279.8
"2009-10-31 00:21:30",1374089,14.91,321.3,5.185,0.986,12.62,103.2608,7.624,8.98,34.17,0,110,13.39,8.40,283.3
"2009-10-31 00:22:00",1374090,16.16,317.2,4.041,0.852,12.67,103.2545,7.608,8.98,34.19,0,110,13.39,8.39,279.2
"2009-10-31 00:22:30",1374091,18.17,314.1,4.515,0.602,12.29,103.2534,7.605,8.97,34.47,0,110,13.39,8.38,276.1
"2009-10-31 00:23:00",1374092,18.24,315.1,4.953,0.777,12.54,103.2531,7.605,8.96,34.59,0,110,13.39,8.38,277.1
"2009-10-31 00:23:30",1374093,17.65,315.2,4.485,0.719,12.47,103.2531,7.605,8.95,34.49,0,110,13.39,8.38,277.2
"2009-10-31 00:24:00",1374094,16.32,312.3,4.407,0.918,12.65,103.2531,7.605,8.94,34.49,0,110,13.39,8.38,274.3
"2009-10-31 00:24:30",1374095,18.04,313.1,4.15,0.859,11.98,103.2534,7.605,8.95,34.5,0,110,13.39,8.38,275.1
"2009-10-31 00:25:00",1374096,17.07,314.7,4.716,1.28,12.31,103.2531,7.605,8.93,34.43,0,110,13.39,8.38,276.7
"2009-10-31 00:25:30",1374097,17.8,314.8,4.764,0.798,12.25,103.2534,7.605,8.95,34.32,0,110,13.39,8.38,276.8
"2009-10-31 00:26:00",1374098,17.67,316.4,4.718,0.629,12.62,103.2486,7.593,8.91,34.31,0,110,13.39,8.37,278.4
"2009-10-31 00:26:30",1374099,17.28,316,3.689,0.987,12.23,103.2249,7.532,8.89,34.41,0,110,13.39,8.31,278.0
"2009-10-31 00:27:00",1374100,17.58,315.9,4.178,0.779,12.31,103.2195,7.519,8.89,34.49,0,110,13.39,8.30,277.9
"2009-10-31 00:27:30",1374101,16.9,318.1,4.369,0.86,12.26,103.2192,7.518,8.88,34.7,0,110,13.39,8.30,280.1
"2009-10-31 00:28:00",1374102,15.88,314.8,4.47,0.875,12.5,103.2195,7.519,8.87,34.94,0,110,13.39,8.30,276.8
"2009-10-31 00:28:30",1374103,15.51,311.8,5.669,1.063,12.21,103.2116,7.498,8.86,35.11,0,110.1,13.39,8.28,273.8
"2009-10-31 00:29:00",1374104,14.84,313.3,3.793,1.026,12.04,103.1927,7.45,8.83,35.05,0,110,13.39,8.23,275.3
"2009-10-31 00:29:30",1374105,14.36,312.9,4.186,0.634,12.13,103.1871,7.436,8.82,34.95,0,110,13.39,8.21,274.9
"2009-10-31 00:30:00",1374106,14.7,311.6,4.552,0.731,12.36,103.1883,7.439,8.81,34.94,0,110,13.39,8.22,273.6
"2009-10-31 00:30:30",1374107,14.76,308.2,4.432,0.83,11.88,103.1891,7.441,8.8,35.02,0,110,13.39,8.22,270.2
"2009-10-31 00:31:00",1374108,15.47,310.3,4.658,0.576,11.84,103.1906,7.445,8.78,35.22,0,110,13.39,8.22,272.3
"2009-10-31 00:31:30",1374109,14.63,309,5.096,0.841,11.82,103.1887,7.44,8.78,35.38,0,110,13.39,8.22,271.0
"2009-10-31 00:32:00",1374110,14.16,312.9,5.027,0.728,12.1,103.1755,7.406,8.75,35.3,0,110,13.38,8.18,274.9
"2009-10-31 00:32:30",1374111,14.03,311.2,5.013,0.537,11.65,103.1682,7.387,8.76,35.36,0,110,13.39,8.17,273.2
"2009-10-31 00:33:00",1374112,13.11,303.9,6.292,1.16,10.6,103.1654,7.38,8.68,35.61,0,110,13.39,8.16,265.9
"2009-10-31 00:33:30",1374113,12.79,305.3,7.019,1.264,9.3,103.1678,7.386,8.52,35.61,0,110,13.39,8.16,267.3
"2009-10-31 00:34:00",1374114,11.83,301.1,4.487,0.942,9.42,103.1695,7.391,8.56,35.66,0,110,13.39,8.17,263.1
"2009-10-31 00:34:30",1374115,12.63,306.6,7.828,1.197,10.73,103.1684,7.388,8.61,35.77,0,110,13.39,8.17,268.6
"2009-10-31 00:35:00",1374116,12.64,309,6.261,1.476,10.94,103.1719,7.397,8.68,35.96,0,110,13.39,8.17,271.0
"2009-10-31 00:35:30",1374117,13.45,312.3,4.96,1.076,12,103.1748,7.404,8.67,36.02,0,110,13.39,8.18,274.3
"2009-10-31 00:36:00",1374118,14.02,311.9,5.331,0.999,12.04,103.1739,7.402,8.66,35.83,0,110,13.4,8.18,273.9
"2009-10-31 00:36:30",1374119,14.2,313.4,5.31,0.699,12.72,103.1714,7.395,8.67,35.69,0,110,13.4,8.17,275.4
"2009-10-31 00:37:00",1374120,13.89,309.7,4.384,0.713,12.02,103.1693,7.39,8.67,35.77,0,110,13.4,8.17,271.7
"2009-10-31 00:37:30",1374121,13.78,310.3,4.786,0.684,11.65,103.1653,7.38,8.68,36,0,110,13.4,8.16,272.3
"2009-10-31 00:38:00",1374122,13.29,310.4,4.138,0.524,11.79,103.1523,7.347,8.65,36.08,0,110,13.4,8.12,272.4
"2009-10-31 00:38:30",1374123,13.63,309,5.03,0.678,11.54,103.1479,7.335,8.66,36.15,0,110,13.4,8.11,271.0
"2009-10-31 00:39:00",1374124,13.08,309.4,3.548,0.733,11.33,103.1479,7.335,8.65,36.33,0,110,13.4,8.11,271.4
"2009-10-31 00:39:30",1374125,13.3,309.9,6.623,1.169,10.17,103.1511,7.344,8.55,36.28,0,110,13.4,8.12,271.9
"2009-10-31 00:40:00",1374126,13.21,309.8,5.855,1.364,9.98,103.152,7.346,8.49,36.23,0,110,13.4,8.12,271.8
"2009-10-31 00:40:30",1374127,12.41,302.3,5.639,1.142,8.09,103.1517,7.345,8.44,36.49,0,110,13.4,8.12,264.3
"2009-10-31 00:41:00",1374128,14.19,312,5.821,1.183,11.28,103.1455,7.329,8.53,36.46,0,110,13.4,8.11,274.0
"2009-10-31 00:41:30",1374129,15.12,318.8,4.191,1.151,11.93,103.1226,7.271,8.56,36.24,0,110,13.4,8.05,280.8
"2009-10-31 00:42:00",1374130,15.52,318.3,4.101,0.704,12.46,103.1186,7.261,8.56,36.2,0,109.9,13.4,8.04,280.3
"2009-10-31 00:42:30",1374131,14.85,314.8,3.55,0.798,12.21,103.1186,7.261,8.55,36.33,0,110,13.4,8.04,276.8
"2009-10-31 00:43:00",1374132,15.76,315.9,3.881,1.031,12.22,103.1186,7.261,8.55,36.48,0,110,13.4,8.04,277.9
"2009-10-31 00:43:30",1374133,15.75,317.6,3.606,0.783,12.2,103.1099,7.238,8.54,36.24,0,110,13.4,8.02,279.6
"2009-10-31 00:44:00",1374134,14.43,317.9,4.323,1.168,12.08,103.0943,7.199,8.52,36.42,0,110,13.4,7.98,279.9
"2009-10-31 00:44:30",1374135,16.05,317.2,4.108,0.849,11.91,103.085,7.175,8.5,36.46,0,110,13.4,7.95,279.2
"2009-10-31 00:45:00",1374136,17.36,314.5,4.566,0.786,11.92,103.0847,7.174,8.49,36.57,0,110,13.4,7.95,276.5
"2009-10-31 00:45:30",1374137,17.62,312.5,4.791,0.526,12.2,103.0847,7.174,8.49,36.5,0,110,13.4,7.95,274.5
"2009-10-31 00:46:00",1374138,16.64,313.7,4.026,0.659,12.16,103.0836,7.171,8.46,36.56,0,109.9,13.4,7.95,275.7
"2009-10-31 00:46:30",1374139,16.32,314.8,3.948,0.782,11.87,103.0644,7.122,8.45,36.64,0,110,13.4,7.90,276.8
"2009-10-31 00:47:00",1374140,16.66,318.5,5.22,0.775,11.81,103.0511,7.088,8.46,36.68,0,110,13.4,7.87,280.5
"2009-10-31 00:47:30",1374141,17.51,317.2,4.413,0.54,12.1,103.0508,7.088,8.43,36.6,0,110,13.4,7.86,279.2
"2009-10-31 00:48:00",1374142,17.01,317.8,3.993,0.903,11.91,103.0508,7.088,8.42,36.69,0,109.9,13.39,7.86,279.8
"2009-10-31 00:48:30",1374143,17.21,315,4.87,0.97,11.89,103.0508,7.088,8.39,36.94,0,109.9,13.39,7.86,277.0
"2009-10-31 00:49:00",1374144,16.09,315.2,5.559,0.79,11.86,103.0446,7.072,8.39,37.09,0,109.9,13.39,7.85,277.2
"2009-10-31 00:49:30",1374145,16.52,318.5,2.77,1.004,11.85,103.0198,7.008,8.36,36.97,0,109.9,13.39,7.78,280.5
"2009-10-31 00:50:00",1374146,15.98,317.7,4.402,0.863,12.1,103.017,7.001,8.36,36.8,0,109.9,13.39,7.78,279.7
"2009-10-31 00:50:30",1374147,16.74,316.9,4.066,0.803,11.98,103.017,7.001,8.34,37,0,110,13.39,7.78,278.9
"2009-10-31 00:51:00",1374148,16.41,316.8,4.395,0.882,12.36,103.0155,6.997,8.3,36.88,0,109.9,13.39,7.77,278.8
"2009-10-31 00:51:30",1374149,15.58,316.3,5.33,0.873,12.52,103.0096,6.982,8.3,36.75,0,109.9,13.4,7.76,278.3
"2009-10-31 00:52:00",1374150,16.39,318.6,4.235,0.799,12.38,103.0056,6.972,8.28,36.78,0,109.9,13.4,7.75,280.6
"2009-10-31 00:52:30",1374151,16.26,315.5,4.312,0.597,12.24,103.0085,6.979,8.28,36.87,0,109.9,13.4,7.76,277.5
"2009-10-31 00:53:00",1374152,15.9,316.7,4.619,0.692,12.39,103.0136,6.992,8.3,36.89,0,109.9,13.4,7.77,278.7
"2009-10-31 00:53:30",1374153,15.25,315.1,4.86,0.69,11.9,103.017,7.001,8.28,37.07,0,109.9,13.4,7.78,277.1
"2009-10-31 00:54:00",1374154,15.85,313.7,4.437,1.031,11.96,103.017,7.001,8.28,37.26,0,109.9,13.4,7.78,275.7
"2009-10-31 00:54:30",1374155,16.52,314.1,3.742,0.989,12.05,103.017,7.001,8.29,37.02,0,109.9,13.4,7.78,276.1
"2009-10-31 00:55:00",1374156,15.66,314.5,3.804,0.938,11.77,103.017,7.001,8.3,37.11,0,109.9,13.4,7.78,276.5
"2009-10-31 00:55:30",1374157,16.62,317.1,4.022,0.819,11.98,103.017,7.001,8.3,37.07,0,109.9,13.4,7.78,279.1
"2009-10-31 00:56:00",1374158,16.48,319.7,3.014,0.833,12.02,103.017,7.001,8.28,36.99,0,109.9,13.4,7.78,281.7
"2009-10-31 00:56:30",1374159,16.69,319.1,4.423,0.687,12.25,103.017,7.001,8.3,37.04,0,109.9,13.4,7.78,281.1
"2009-10-31 00:57:00",1374160,16.9,318.1,4.107,0.68,12.06,103.017,7.001,8.31,37.04,0,109.9,13.4,7.78,280.1
"2009-10-31 00:57:30",1374161,17.01,318.3,4.148,0.741,12.19,103.017,7.001,8.3,37.06,0,109.9,13.4,7.78,280.3
"2009-10-31 00:58:00",1374162,16.22,317.9,3.624,0.691,12.28,103.0178,7.003,8.3,36.94,0,109.9,13.4,7.78,279.9
"2009-10-31 00:58:30",1374163,16.01,317.2,4.416,0.798,12.26,103.0234,7.017,8.31,36.96,0,110,13.4,7.79,279.2
"2009-10-31 00:59:00",1374164,15.76,316.7,4.865,0.58,12.3,103.0325,7.041,8.32,36.85,0,109.9,13.4,7.82,278.7
"2009-10-31 00:59:30",1374165,15.49,319,4.688,0.758,12.42,103.0407,7.062,8.32,36.81,0,109.9,13.4,7.84,281.0
"2009-10-31 01:00:00",1374166,13.47,323.7,4.294,1.023,12.84,103.0472,7.078,8.33,36.75,0,109.9,13.4,7.86,285.7
"2009-10-31 01:00:30",1374167,14.52,320,4.612,0.767,12.31,103.0508,7.088,8.33,36.71,0,109.9,13.4,7.86,282.0
"2009-10-31 01:01:00",1374168,14.58,319.8,5.082,0.796,12.12,103.0508,7.088,8.35,36.74,0,110,13.4,7.86,281.8
"2009-10-31 01:01:30",1374169,13.64,319.7,3.706,1.033,12.17,103.0508,7.088,8.36,36.67,0,109.9,13.41,7.86,281.7
"2009-10-31 01:02:00",1374170,14.53,320.2,3.492,1.06,12.18,103.0508,7.088,8.35,36.59,0,109.9,13.41,7.86,282.2
"2009-10-31 01:02:30",1374171,15.43,318.6,3.75,0.878,11.78,103.0658,7.126,8.37,36.75,0,110,13.41,7.90,280.6
"2009-10-31 01:03:00",1374172,14.62,320.7,5.402,0.782,12.12,103.0842,7.173,8.41,36.64,0,109.9,13.4,7.95,282.7
"2009-10-31 01:03:30",1374173,14.48,319.1,5.211,0.831,12.17,103.0847,7.174,8.41,36.53,0,109.9,13.4,7.95,281.1
"2009-10-31 01:04:00",1374174,15.21,320,4.283,0.893,12.21,103.0847,7.174,8.42,36.49,0,109.9,13.4,7.95,282.0
"2009-10-31 01:04:30",1374175,14.79,320,4.771,0.907,12.2,103.0867,7.179,8.43,36.42,0,110,13.4,7.96,282.0
"2009-10-31 01:05:00",1374176,14.79,319.9,5.118,0.789,12.31,103.0991,7.211,8.44,36.38,0,109.9,13.4,7.99,281.9
"2009-10-31 01:05:30",1374177,14.04,320.6,4.829,0.825,12.06,103.1093,7.237,8.47,36.37,0,109.9,13.4,8.01,282.6
"2009-10-31 01:06:00",1374178,13.74,323,4.58,0.79,12.18,103.1186,7.261,8.47,36.32,0,109.9,13.4,8.04,285.0
"2009-10-31 01:06:30",1374179,12.72,322.7,4.913,0.584,12.47,103.1186,7.261,8.5,36.31,0,110,13.4,8.04,284.7
"2009-10-31 01:07:00",1374180,12.69,322,5.177,0.794,12.19,103.1186,7.261,8.52,36.3,0,109.9,13.4,8.04,284.0
"2009-10-31 01:07:30",1374181,12.54,327,4.566,0.647,12.1,103.1189,7.261,8.53,36.26,0,109.9,13.4,8.04,289.0
"2009-10-31 01:08:00",1374182,11.73,328.4,3.793,0.687,12.33,103.133,7.298,8.53,36.25,0,109.9,13.4,8.08,290.4
"2009-10-31 01:08:30",1374183,12.6,323.7,5.107,0.356,11.95,103.1509,7.343,8.55,36.21,0,109.9,13.4,8.12,285.7
"2009-10-31 01:09:00",1374184,12.94,322.3,5.502,0.797,11.75,103.1525,7.347,8.6,36.23,0,109.9,13.4,8.13,284.3
"2009-10-31 01:09:30",1374185,13.28,323.2,4.636,1.179,11.66,103.1525,7.347,8.6,36.22,0,109.9,13.41,8.13,285.2
"2009-10-31 01:10:00",1374186,13.99,321.6,4.435,0.893,11.73,103.1525,7.347,8.6,36.22,0,109.9,13.41,8.13,283.6
"2009-10-31 01:10:30",1374187,13.27,320.7,4.585,0.938,11.79,103.1627,7.373,8.61,36.18,0,110,13.41,8.15,282.7
"2009-10-31 01:11:00",1374188,13.65,318.8,4.697,0.621,12.05,103.1709,7.394,8.64,36.14,0,109.9,13.41,8.17,280.8
"2009-10-31 01:11:30",1374189,12.21,320.1,5.213,0.829,12.02,103.1791,7.415,8.64,36.07,0,109.9,13.41,8.19,282.1
"2009-10-31 01:12:00",1374190,11.73,321.4,3.538,0.877,11.95,103.1864,7.434,8.65,36.03,0,109.9,13.41,8.21,283.4
"2009-10-31 01:12:30",1374191,11.78,322.8,5.43,0.74,11.91,103.1867,7.435,8.66,35.95,0,109.9,13.41,8.21,284.8
"2009-10-31 01:13:00",1374192,9.27,312.8,3.027,0.555,7.712,103.1864,7.434,8.43,35.7,0,109.9,13.41,8.21,274.8
"2009-10-31 01:13:30",1374193,9.77,314,5.718,1.146,8.93,103.1864,7.434,8.48,35.73,0,109.9,13.41,8.21,276.0
"2009-10-31 01:14:00",1374194,10.1,320.4,4.683,1.257,9.41,103.1864,7.434,8.47,35.77,0,109.9,13.41,8.21,282.4
"2009-10-31 01:14:30",1374195,11.77,325.6,3.867,0.873,12.93,103.1864,7.434,8.71,36.07,0,110,13.42,8.21,287.6
"2009-10-31 01:15:00",1374196,11.79,325.8,4.109,0.582,13.18,103.1864,7.434,8.73,36.01,0,110,13.42,8.21,287.8
"2009-10-31 01:15:30",1374197,11.88,324.5,4.627,0.587,13.06,103.1867,7.435,8.73,35.98,0,110,13.42,8.21,286.5
"2009-10-31 01:16:00",1374198,12.48,323.2,4.266,0.522,12.62,103.1864,7.434,8.74,35.96,0,110,13.42,8.21,285.2
"2009-10-31 01:16:30",1374199,12.51,318.7,5.063,0.66,12.19,103.1873,7.436,8.75,35.91,0,110,13.42,8.21,280.7
"2009-10-31 01:17:00",1374200,12.86,317.7,4.168,0.536,11.85,103.1882,7.438,8.75,35.91,0,109.9,13.42,8.22,279.7
"2009-10-31 01:17:30",1374201,11.98,318.2,5.295,0.957,11.18,103.1879,7.438,8.64,35.76,0,110,13.42,8.22,280.2
"2009-10-31 01:18:00",1374202,10.36,310.6,3.302,0.623,7.921,103.191,7.446,8.53,35.66,0,110,13.42,8.22,272.6
"2009-10-31 01:18:30",1374203,10.33,314,6.052,1.593,9.24,103.1887,7.44,8.49,35.63,0,110,13.42,8.22,276.0
"2009-10-31 01:19:00",1374204,11.17,318.5,6.193,1.308,12.08,103.1893,7.441,8.72,35.84,0,110,13.42,8.22,280.5
"2009-10-31 01:19:30",1374205,10.72,323.7,3.286,1.073,13.17,103.1882,7.438,8.78,35.91,0,109.9,13.42,8.22,285.7
"2009-10-31 01:20:00",1374206,10.42,324.3,3.746,0.666,13.05,103.1876,7.437,8.78,35.97,0,109.9,13.42,8.22,286.3
"2009-10-31 01:20:30",1374207,10.04,323.6,5.401,0.761,11.99,103.1876,7.437,8.69,35.85,0,109.9,13.41,8.22,285.6
"2009-10-31 01:21:00",1374208,8.51,315.8,5.819,1.181,8.85,103.1891,7.441,8.46,35.7,0,110,13.41,8.22,277.8
"2009-10-31 01:21:30",1374209,9.03,320,5.928,1.415,10.02,103.1885,7.439,8.62,35.87,0,110,13.41,8.22,282.0
"2009-10-31 01:22:00",1374210,7.9,316.4,4.34,0.81,9.09,103.1873,7.436,8.63,35.9,0,109.9,13.42,8.21,278.4
"2009-10-31 01:22:30",1374211,9.72,324.9,5.315,1.348,12.5,103.1893,7.441,8.8,36.07,0,109.9,13.42,8.22,286.9
"2009-10-31 01:23:00",1374212,10.32,325,3.737,0.727,13.21,103.1893,7.441,8.77,36.06,0,109.9,13.42,8.22,287.0
"2009-10-31 01:23:30",1374213,9.91,325.9,4.065,0.879,12.74,103.1888,7.44,8.78,36.06,0,109.9,13.42,8.22,287.9
"2009-10-31 01:24:00",1374214,8.94,322.6,7.377,1.159,10.42,103.1899,7.443,8.59,35.88,0,109.9,13.42,8.22,284.6
"2009-10-31 01:24:30",1374215,8.29,319.7,7.353,1.145,9.58,103.1893,7.441,8.58,35.88,0,109.9,13.42,8.22,281.7
"2009-10-31 01:25:00",1374216,7.827,316.8,3.728,0.745,8.27,103.1896,7.442,8.49,35.79,0,109.9,13.42,8.22,278.8
"2009-10-31 01:25:30",1374217,9.97,325.5,5.722,1.231,12.81,103.1923,7.449,8.78,36.07,0,109.9,13.42,8.23,287.5
"2009-10-31 01:26:00",1374218,10.48,325.3,3.689,0.57,13.23,103.1917,7.447,8.76,36.1,0,109.9,13.43,8.23,287.3
"2009-10-31 01:26:30",1374219,10,329.1,3.177,0.858,12.84,103.1899,7.443,8.78,36.16,0,109.9,13.43,8.22,291.1
"2009-10-31 01:27:00",1374220,9.16,323.7,5.977,1.214,11.56,103.1899,7.443,8.78,36.15,0,109.9,13.42,8.22,285.7
"2009-10-31 01:27:30",1374221,8.05,321.1,9.27,1.269,10.03,103.1905,7.444,8.57,35.89,0,109.9,13.42,8.22,283.1
"2009-10-31 01:28:00",1374222,6.288,316.2,2.749,0.55,8.01,103.1899,7.443,8.47,35.75,0,109.9,13.45,8.22,278.2
"2009-10-31 01:28:30",1374223,7.597,322.7,7.052,1.367,10.51,103.1902,7.444,8.64,35.83,0,109.9,13.43,8.22,284.7
"2009-10-31 01:29:00",1374224,9.01,328.8,6.051,1.198,12.2,103.1905,7.444,8.68,35.92,0,110,13.43,8.22,290.8
"2009-10-31 01:29:30",1374225,9.12,329.5,6.397,0.909,13.24,103.1917,7.447,8.76,36.07,0,110,13.43,8.23,291.5
"2009-10-31 01:30:00",1374226,9.19,337.2,4.614,0.605,13.07,103.1931,7.451,8.79,36.12,0,110,13.43,8.23,299.2
"2009-10-31 01:30:30",1374227,7.648,327.8,6.129,1.231,10.2,103.1923,7.449,8.66,35.95,0,110,13.43,8.23,289.8
"2009-10-31 01:31:00",1374228,6.278,322,0.954,0.132,7.865,103.1928,7.45,8.46,35.68,0,110,13.46,8.23,284.0
"2009-10-31 01:31:30",1374229,7.685,328,7.456,1.218,10.26,103.194,7.453,8.55,35.8,0,110,13.43,8.23,290.0
"2009-10-31 01:32:00",1374230,6.266,322.9,3.594,0.635,9.65,103.1931,7.451,8.62,35.79,0,110,13.43,8.23,284.9
"2009-10-31 01:32:30",1374231,7.674,332,4.798,1.052,13.41,103.1931,7.451,8.81,35.84,0,110,13.43,8.23,294.0
"2009-10-31 01:33:00",1374232,7.666,332.9,4.312,0.593,13.41,103.1934,7.452,8.78,35.72,0,110,13.43,8.23,294.9
"2009-10-31 01:33:30",1374233,6.731,327.4,6.252,1.345,11.7,103.194,7.453,8.74,35.59,0,110,13.43,8.23,289.4
"2009-10-31 01:34:00",1374234,4.575,320.4,5.164,0.243,8.14,103.194,7.453,8.49,35.14,0,110,13.46,8.23,282.4
"2009-10-31 01:34:30",1374235,4.461,318.9,2.001,0.544,8.07,103.1963,7.459,8.47,35.01,0,110,13.43,8.24,280.9
"2009-10-31 01:35:00",1374236,4.706,323.1,4.2,0.496,9.03,103.201,7.471,8.62,35.17,0,110,13.47,8.25,285.1
"2009-10-31 01:35:30",1374237,6.23,325.8,8.16,1.303,11.41,103.2127,7.501,8.59,35.02,0,110,13.43,8.28,287.8
"2009-10-31 01:36:00",1374238,6.848,327.5,8.55,1.091,12.68,103.2254,7.534,8.8,35.16,0,110,13.43,8.31,289.5
"2009-10-31 01:36:30",1374239,6.979,339,6.222,0.918,13.4,103.2273,7.539,8.83,34.89,0,110,13.43,8.32,301.0
"2009-10-31 01:37:00",1374240,6.01,331,11.59,1.194,10.69,103.2282,7.541,8.64,34.56,0,110,13.43,8.32,293.0
"2009-10-31 01:37:30",1374241,4.709,318.6,3.721,0.386,8.07,103.2282,7.541,8.51,34.39,0,110,13.46,8.32,280.6
"2009-10-31 01:38:00",1374242,5.64,330.6,7.071,1.157,9.45,103.2288,7.542,8.52,34.46,0,110,13.43,8.32,292.6
"2009-10-31 01:38:30",1374243,4.734,327.3,2.694,0.446,9.35,103.2319,7.55,8.7,34.57,0,110,13.43,8.33,289.3
"2009-10-31 01:39:00",1374244,6.457,332.9,5.646,1.065,12.45,103.2412,7.574,8.71,34.55,0,110,13.43,8.35,294.9
"2009-10-31 01:39:30",1374245,7.314,333.2,5.086,0.997,13.29,103.2593,7.62,8.83,34.67,0,110,13.43,8.40,295.2
"2009-10-31 01:40:00",1374246,7.623,334.9,5.26,1.186,12.59,103.2627,7.629,8.81,34.82,0,110,13.43,8.41,296.9
"2009-10-31 01:40:30",1374247,5.186,327.9,5.648,1.339,9.95,103.2624,7.628,8.72,34.72,0,110,13.43,8.41,289.9
"2009-10-31 01:41:00",1374248,5.008,318.4,4.576,0.463,8.02,103.263,7.63,8.6,34.53,0,110,13.47,8.41,280.4
"2009-10-31 01:41:30",1374249,4.611,318.3,2.939,0.106,8.44,103.2621,7.627,8.7,34.62,0,110,13.47,8.41,280.3
"2009-10-31 01:42:00",1374250,6.22,326.7,6.226,1.213,12.05,103.2681,7.643,8.85,34.57,0,110,13.44,8.42,288.7
"2009-10-31 01:42:30",1374251,6.792,323.7,6.533,1.222,12.21,103.2904,7.7,8.86,34.59,0,110,13.44,8.48,285.7
"2009-10-31 01:43:00",1374252,6.629,329.8,5.59,1.04,12.99,103.2978,7.719,8.95,34.72,0,110,13.44,8.50,291.8
"2009-10-31 01:43:30",1374253,6.373,328.6,6.203,1.164,12.1,103.2978,7.719,8.84,34.54,0,110,13.44,8.50,290.6
"2009-10-31 01:44:00",1374254,4.617,321.8,1.764,0.191,8.44,103.2978,7.719,8.78,34.35,0,110,13.47,8.50,283.8
"2009-10-31 01:44:30",1374255,5.04,319,3.859,0.282,8.03,103.2983,7.72,8.68,34.22,0,110,13.47,8.50,281.0
"2009-10-31 01:45:00",1374256,6.138,321.2,6.441,1.241,11.16,103.2986,7.721,8.9,34.59,0,110,13.44,8.50,283.2
"2009-10-31 01:45:30",1374257,6.917,328.7,6.989,0.969,12.36,103.2975,7.718,8.89,34.54,0,110,13.44,8.50,290.7
"2009-10-31 01:46:00",1374258,5.905,330,7.903,1.152,11.65,103.2972,7.717,8.92,34.25,0,110,13.44,8.50,292.0
"2009-10-31 01:46:30",1374259,6.153,324.9,7.298,1.211,12.07,103.298,7.719,8.99,34.35,0,110,13.44,8.50,286.9
"2009-10-31 01:47:00",1374260,6.155,323.5,6.148,1.338,10.79,103.3091,7.747,8.81,34.5,0,110,13.44,8.53,285.5
"2009-10-31 01:47:30",1374261,4.413,317.3,3.336,0.266,8.06,103.3229,7.783,8.74,34.42,0,110,13.47,8.56,279.3
"2009-10-31 01:48:00",1374262,5.574,316.6,6.667,1.108,10.1,103.3269,7.793,8.78,34.5,0,110,13.44,8.57,278.6
"2009-10-31 01:48:30",1374263,5.459,316.5,8.24,1.356,10.41,103.3311,7.804,8.9,34.41,0,110,13.44,8.58,278.5
"2009-10-31 01:49:00",1374264,6.976,317.9,7.141,1.417,11.21,103.3328,7.808,8.99,34.69,0,110,13.44,8.59,279.9
"2009-10-31 01:49:30",1374265,7.04,320.7,5.409,1.206,12.46,103.3343,7.812,9.03,34.92,0,110,13.44,8.59,282.7
"2009-10-31 01:50:00",1374266,6.121,318.3,7.356,1.283,10.88,103.334,7.811,8.95,34.72,0,110,13.44,8.59,280.3
"2009-10-31 01:50:30",1374267,5.245,315.2,4.876,0.767,8.98,103.3355,7.815,8.94,34.72,0,110,13.44,8.59,277.2